[[{"header":{"parameterUnit":"m.s-1","parameterCategory":1,"la1":30.2991,"la2":30.254,"lo1":-89.0895,"lo2":-89.0444,"dy":0.0017,"dx":0.0017,"nx":28,"ny":28,"refTime":"2025-09-09T09:00:00:Z","depth":0,"parameterNumber":2,"parameterNumberName":"U-component_of_WINDS"},"data":[0,0,0,0,0,0,0,0,0,0,0,0,0,0,0,0,0,0,0,0,0,0,0,0,0,0,0,0,0,0,0,0,0,0,0,0,0,0,0,0,0,0,0,0,0,0,0,0,0,0,0,0,0,0,0,0,0,0,-4.7744,-4.7745,0,-4.7802,-4.7803,-4.7804,-4.7647,-4.7643,-4.7638,-4.7633,-4.7691,-4.7697,-4.7703,0,0,0,0,0,0,0,0,0,0,0,0,0,-4.7496,-4.7501,-4.7744,-4.7745,-4.7746,-4.7802,-4.7803,-4.7804,-4.7648,-4.7642,-4.7636,-4.7631,-4.7689,-4.7696,-4.7704,0,0,0,0,0,0,0,0,0,0,0,0,0,-4.7584,-4.7503,-4.7744,-4.7675,-4.7669,-4.7802,-4.7803,-4.7804,-4.765,-4.7642,-4.7635,-4.7628,-4.7687,-4.7696,-4.7705,-4.7907,0,0,-4.7732,-4.7736,0,0,0,0,0,0,0,0,-4.7579,-4.7593,-4.7684,-4.768,-4.7674,-4.771,-4.7736,-4.7838,-4.7651,-4.7657,-4.7633,-4.7625,-4.7703,-4.7711,-4.7737,-4.7909,-4.7912,-4.7733,-4.7739,-4.7743,-4.7745,0,0,0,0,0,0,0,-4.7573,-4.759,-4.7767,-4.7686,-4.7679,-4.764,-4.7645,-4.7755,-4.772,-4.7656,-4.7645,-4.7654,-4.7699,-4.7729,-4.7738,-4.7913,-4.7733,-4.7741,-4.7747,-4.775,-4.8251,-4.8258,0,0,0,0,0,0,-4.7576,-4.7586,-4.7765,-4.7769,-4.7608,-4.7651,-4.7655,-4.7706,-4.7719,-4.7714,-4.766,-4.7646,-4.7717,-4.7727,-4.7739,-4.7974,-4.7743,-4.7751,-4.7756,-4.8243,-4.8252,-4.8261,0,0,0,0,0,0,-4.7572,-4.7594,-4.7763,-4.7674,-4.7693,-4.7663,-4.772,-4.7711,-4.774,-4.7722,-4.7714,-4.7697,-4.7712,-4.7726,-4.7866,-4.7974,-4.7755,-4.7764,-4.8234,-4.8246,-4.8257,-4.8448,0,0,0,0,0,0,-4.7565,-4.7593,-4.767,-4.7677,-4.7698,-4.789,-4.7727,-4.7717,-4.7757,-4.774,-4.7755,-4.775,-4.7707,-4.7853,-4.7875,-4.7983,-4.7771,-4.8224,-4.8239,-4.8253,-4.8432,-4.8465,-4.8493,0,0,0,0,0,-4.7557,-4.7722,-4.7675,-4.7697,-4.7794,-4.7896,-4.7908,-4.7856,-4.7766,-4.7843,-4.783,-4.775,-4.7959,-4.7869,-4.7892,-4.8004,-4.8217,-4.8235,-4.8252,-4.8418,-4.8458,-4.8492,0,0,0,0,0,0,-4.7728,-4.7721,-4.7669,-4.7842,-4.7871,-4.787,-4.7964,-4.79,-4.7955,-4.7936,-4.7868,-4.7873,-4.8025,-4.8028,-4.7927,-4.8199,-4.8072,-4.8096,-4.8191,-4.8229,-4.8259,-4.8254,-4.7778,0,0,0,0,0,-4.7786,-4.787,-4.786,-4.8013,-4.803,-4.7996,-4.8038,-4.7995,-4.8022,-4.8034,-4.8031,-4.806,-4.8132,-4.8181,-4.8246,-4.8432,-4.8432,-4.8521,-4.8551,-4.8577,-4.8597,-4.8693,-4.8732,-4.8319,-4.8318,-4.8318,0,0,-4.7906,-4.7913,-4.797,-4.8047,-4.8065,-4.8152,-4.8007,-4.8106,-4.817,-4.8048,-4.8179,-4.8179,-4.8207,-4.837,-4.8441,-4.8377,-4.8711,-4.8599,-4.8619,-4.8626,-4.8715,-4.8754,-4.8789,-4.8331,-4.8328,-4.8326,0,0,-4.8169,-4.8184,-4.8312,-4.8332,-4.8361,-4.8336,-4.8368,-4.8377,-4.8372,-4.8502,-4.8412,-4.8487,-4.8614,-4.8636,-4.8664,-4.8936,-4.8863,-4.896,-4.9119,-4.9214,-4.9246,-4.9275,-4.9369,-4.9405,-4.898,-4.8981,-4.8981,0,-4.8314,-4.8443,-4.8385,-4.8491,-4.8526,-4.8421,-4.8549,-4.8572,-4.8621,-4.8647,-4.8575,-4.873,-4.8742,-4.8908,-4.8974,-4.9001,-4.9033,-4.8957,-4.9246,-4.9274,-4.93,-4.939,-4.9426,-4.8992,-4.8991,-4.899,-4.8989,0,-4.8619,-4.871,-4.881,-4.886,-4.8907,-4.9024,-4.8982,-4.9037,-4.8991,-4.8974,-4.9107,-4.9118,-4.9182,-4.9219,-4.9175,-4.9379,-4.9338,-4.9258,-4.9128,-4.9352,-4.9434,-4.9469,-4.9008,-4.9004,-4.9001,-4.8998,0,0,-4.899,-4.9006,-4.9044,-4.9064,-4.9088,-4.9157,-4.9268,-4.9332,-4.9379,-4.9416,-4.9507,-4.9616,-4.9541,-4.9574,-4.9531,-4.9615,-4.9827,-4.9523,-4.9523,-4.9577,-5.005,-5.0108,-5.0149,-4.9779,-4.9786,-4.9791,-5.0046,0,-4.9247,-4.9438,-4.939,-4.9579,-4.9661,-4.9563,-4.9659,-4.9684,-4.9672,-4.9739,-4.9725,-4.9802,-4.97,-4.9718,-4.9797,-4.9784,-4.992,-4.9766,-4.9861,-4.9865,-4.9855,-5.0192,-5.0255,-5.0495,-5.0079,-5.0084,-5.0088,0,-4.9573,-4.9623,-4.9821,-4.983,-4.9862,-4.995,-5.0004,-5.007,-5.0096,-5.0081,-5.0117,-5.0058,-5.0166,-5.0038,-5.0186,-5.0082,-5.0118,-5.0118,-5.0126,-5.0131,-4.9989,-5.0204,-5.0571,-5.0607,-5.0139,-5.0135,-5.0131,0,-4.9821,-4.9937,-5.007,-5.0091,-5.0106,-5.0169,-5.0178,-5.0197,-5.0238,-5.0285,-5.031,-5.037,-5.0402,-5.0449,-5.0407,-5.0318,-5.0561,-5.043,-5.055,-5.0551,-5.0603,-5.06,-5.0979,-5.0632,-5.0631,-5.063,-5.063,0,-5.0112,-5.0236,-5.0181,-5.0263,-5.0399,-5.0342,-5.0477,-5.0475,-5.0492,-5.0571,-5.049,-5.0565,-5.0506,-5.0576,-5.0543,-5.0669,-5.0685,-5.0675,-5.0664,-5.0681,-5.0682,-5.0702,-5.0683,-5.064,-5.0638,-5.0636,-5.0634,0,-5.041,-5.0379,-5.0517,-5.0519,-5.0523,-5.0623,-5.0624,-5.0699,-5.0681,-5.0782,-5.0802,-5.0774,-5.0852,-5.0815,-5.0896,-5.0874,-5.1036,-5.1005,-5.1028,-5.1018,-5.1139,-5.1128,-5.1542,-5.1593,-5.1216,-5.1219,-5.1222,0,-5.0596,-5.069,-5.0703,-5.0749,-5.0764,-5.0841,-5.0882,-5.083,-5.0876,-5.0912,-5.0983,-5.1054,-5.1107,-5.1237,-5.1223,-5.1285,-5.1252,-5.1393,-5.1261,-5.1274,-5.1251,-5.1245,-5.1253,-5.1419,-5.1423,-5.1427,-5.143,0,-5.093,-5.091,-5.0973,-5.1031,-5.1083,-5.1126,-5.1162,-5.1205,-5.1154,-5.121,-5.1289,-5.1331,-5.1414,-5.1485,-5.1539,-5.1547,-5.148,-5.1472,-5.1503,-5.1519,-5.1527,-5.1522,-5.1097,-5.1462,-5.1459,-5.1457,-5.1455,-5.1454,-5.1176,-5.1253,-5.1274,-5.1347,-5.1369,-5.1404,-5.1474,-5.1466,-5.1531,-5.1594,-5.1559,-5.1651,-5.1673,-5.1739,-5.1756,-5.1826,-5.177,-5.1815,-5.1826,-5.1837,-5.1852,-5.1519,-5.1836,-5.1835,-5.1834,-5.1834,-5.1833,0,-5.1502,-5.1511,-5.1579,-5.1632,-5.1689,-5.1623,-5.1659,-5.1711,-5.1793,-5.1819,-5.1874,-5.1964,-5.2033,-5.2025,-5.2087,-5.2145,-5.2116,-5.2163,-5.2157,-5.2159,-5.19,-5.1866,-5.2186,-5.2186,-5.2185,-5.2185,-5.2185,-5.2185,-5.1679,-5.1806,-5.1789,-5.1925,-5.1933,-5.2022,-5.2048,-5.208,-5.2101,-5.2206,-5.2262,-5.2257,-5.2269,-5.2332,-5.2392,-5.2387,-5.2413,-5.2471,-5.2456,-5.2213,-5.2178,-5.2144,-5.2112,-5.2478,-5.2478,-5.2709,-5.2711,-5.2712]},{"header":{"parameterUnit":"m.s-1","parameterCategory":1,"la1":30.2991,"la2":30.254,"lo1":-89.0895,"lo2":-89.0444,"dy":0.0017,"dx":0.0017,"nx":28,"ny":28,"refTime":"2025-09-09T09:00:00:Z","depth":0,"parameterNumber":3,"parameterNumberName":"V-component_of_WINDS"},"data":[0,0,0,0,0,0,0,0,0,0,0,0,0,0,0,0,0,0,0,0,0,0,0,0,0,0,0,0,0,0,0,0,0,0,0,0,0,0,0,0,0,0,0,0,0,0,0,0,0,0,0,0,0,0,0,0,0,0,-0.7434,-0.7435,0,-0.7478,-0.7478,-0.7479,-0.7536,-0.7537,-0.7538,-0.7539,-0.7582,-0.7582,-0.7583,0,0,0,0,0,0,0,0,0,0,0,0,0,-0.7398,-0.7399,-0.7434,-0.7435,-0.7435,-0.7477,-0.7478,-0.7479,-0.7536,-0.7537,-0.7538,-0.7539,-0.7582,-0.7582,-0.7583,0,0,0,0,0,0,0,0,0,0,0,0,0,-0.7425,-0.7399,-0.7434,-0.7469,-0.7472,-0.7477,-0.7478,-0.7479,-0.7535,-0.7537,-0.7538,-0.754,-0.7582,-0.7582,-0.7583,-0.7557,0,0,-0.7584,-0.7584,0,0,0,0,0,0,0,0,-0.7423,-0.7426,-0.7463,-0.7466,-0.747,-0.7503,-0.7481,-0.7505,-0.7535,-0.7511,-0.7539,-0.754,-0.7554,-0.7557,-0.7562,-0.7559,-0.7561,-0.7584,-0.7584,-0.7584,-0.7585,0,0,0,0,0,0,0,-0.7421,-0.7425,-0.7451,-0.7463,-0.7468,-0.7481,-0.7487,-0.7486,-0.7524,-0.7514,-0.7518,-0.7522,-0.7557,-0.7562,-0.7564,-0.7561,-0.7584,-0.7584,-0.7585,-0.7585,-0.7537,-0.7535,0,0,0,0,0,0,-0.7415,-0.7423,-0.745,-0.7453,-0.745,-0.7481,-0.7487,-0.7491,-0.7525,-0.7531,-0.7521,-0.7525,-0.756,-0.7563,-0.7565,-0.7536,-0.7584,-0.7585,-0.7585,-0.7538,-0.7536,-0.7535,0,0,0,0,0,0,-0.7414,-0.7416,-0.7448,-0.7439,-0.7444,-0.748,-0.7484,-0.7491,-0.7496,-0.753,-0.7537,-0.7519,-0.7562,-0.7565,-0.7558,-0.7538,-0.7585,-0.7585,-0.754,-0.7538,-0.7536,-0.7477,0,0,0,0,0,0,-0.7412,-0.7416,-0.7407,-0.7438,-0.7444,-0.7441,-0.7483,-0.7491,-0.7497,-0.7502,-0.753,-0.7536,-0.7563,-0.7557,-0.7558,-0.754,-0.7586,-0.7542,-0.7539,-0.7536,-0.7481,-0.7473,-0.7466,0,0,0,0,0,-0.7411,-0.7389,-0.7406,-0.7409,-0.7434,-0.7439,-0.7443,-0.7474,-0.7495,-0.7486,-0.7507,-0.7535,-0.754,-0.7556,-0.7558,-0.7539,-0.7543,-0.754,-0.7537,-0.7484,-0.7475,-0.7467,0,0,0,0,0,0,-0.7355,-0.7394,-0.7413,-0.7401,-0.7416,-0.7449,-0.7439,-0.7463,-0.7473,-0.7477,-0.7515,-0.7521,-0.7509,-0.7524,-0.7541,-0.7515,-0.7546,-0.7543,-0.7505,-0.7497,-0.749,-0.7486,-0.7586,0,0,0,0,0,-0.7341,-0.7342,-0.7377,-0.7362,-0.7369,-0.7402,-0.7406,-0.7428,-0.7446,-0.7452,-0.7474,-0.7489,-0.7494,-0.7496,-0.7503,-0.7484,-0.749,-0.7471,-0.7464,-0.7458,-0.7454,-0.7443,-0.7435,-0.7523,-0.7524,-0.7524,0,0,-0.7312,-0.7334,-0.7333,-0.7352,-0.7366,-0.7366,-0.7407,-0.7406,-0.7406,-0.7452,-0.7447,-0.7463,-0.7482,-0.7468,-0.7464,-0.748,-0.7431,-0.7453,-0.7448,-0.7448,-0.7439,-0.743,-0.7423,-0.7521,-0.7522,-0.7522,0,0,-0.726,-0.7277,-0.7266,-0.728,-0.7301,-0.7323,-0.732,-0.7349,-0.7361,-0.7356,-0.739,-0.7391,-0.7399,-0.7411,-0.7418,-0.7368,-0.7393,-0.7369,-0.733,-0.7319,-0.7312,-0.7306,-0.7287,-0.7279,-0.7365,-0.7365,-0.7365,0,-0.7222,-0.7224,-0.7258,-0.7254,-0.726,-0.7302,-0.729,-0.7302,-0.7324,-0.7327,-0.7345,-0.7355,-0.7371,-0.736,-0.7347,-0.7352,-0.7349,-0.7365,-0.731,-0.7305,-0.73,-0.7281,-0.7274,-0.7362,-0.7362,-0.7363,-0.7363,0,-0.7174,-0.7175,-0.7164,-0.7183,-0.7189,-0.7181,-0.7213,-0.7214,-0.7236,-0.7255,-0.7249,-0.727,-0.728,-0.7279,-0.7301,-0.727,-0.728,-0.7304,-0.7336,-0.7287,-0.7271,-0.7264,-0.7357,-0.7358,-0.7359,-0.736,0,0,-0.7089,-0.7126,-0.7121,-0.713,-0.7156,-0.7157,-0.715,-0.716,-0.716,-0.7173,-0.7167,-0.7172,-0.7194,-0.7202,-0.7225,-0.7215,-0.7172,-0.7241,-0.7241,-0.7226,-0.7138,-0.7118,-0.711,-0.7189,-0.7188,-0.7187,-0.7136,0,-0.704,-0.7031,-0.7061,-0.7044,-0.7044,-0.7083,-0.7077,-0.7091,-0.7109,-0.7111,-0.713,-0.7133,-0.7162,-0.7167,-0.7159,-0.7179,-0.7155,-0.7183,-0.7183,-0.7183,-0.7176,-0.7102,-0.7082,-0.7032,-0.7129,-0.7128,-0.7128,0,-0.6983,-0.6992,-0.6975,-0.7,-0.7001,-0.6996,-0.7006,-0.7008,-0.7025,-0.7038,-0.7046,-0.7072,-0.7066,-0.7097,-0.7089,-0.7107,-0.7109,-0.7118,-0.7117,-0.7118,-0.7152,-0.7099,-0.7017,-0.7009,-0.7118,-0.7119,-0.712,0,-0.692,-0.6929,-0.6919,-0.6926,-0.6955,-0.695,-0.6961,-0.698,-0.6983,-0.6992,-0.6995,-0.7003,-0.7007,-0.7012,-0.704,-0.706,-0.7027,-0.7061,-0.7037,-0.7036,-0.7028,-0.7027,-0.6944,-0.703,-0.703,-0.7031,-0.7031,0,-0.6862,-0.6849,-0.6891,-0.6885,-0.6872,-0.6905,-0.6891,-0.6907,-0.6922,-0.6919,-0.6953,-0.6949,-0.6986,-0.6986,-0.7007,-0.6996,-0.6998,-0.7008,-0.7013,-0.7004,-0.7002,-0.7005,-0.7008,-0.7029,-0.7029,-0.7029,-0.703,0,-0.6789,-0.6817,-0.6808,-0.6836,-0.6843,-0.6832,-0.6855,-0.685,-0.687,-0.6865,-0.6866,-0.6896,-0.6898,-0.6926,-0.6933,-0.6948,-0.6927,-0.694,-0.6921,-0.6925,-0.6898,-0.69,-0.6812,-0.6802,-0.6896,-0.6895,-0.6894,0,-0.675,-0.6741,-0.6768,-0.6768,-0.6778,-0.6778,-0.6782,-0.6814,-0.6816,-0.6834,-0.6826,-0.683,-0.6835,-0.6835,-0.6857,-0.6863,-0.6875,-0.6844,-0.6876,-0.6866,-0.6873,-0.6872,-0.6871,-0.6837,-0.6836,-0.6835,-0.6834,0,-0.6677,-0.669,-0.6694,-0.6702,-0.6705,-0.6713,-0.6723,-0.6721,-0.6757,-0.6757,-0.6759,-0.6763,-0.677,-0.6773,-0.6782,-0.6793,-0.6818,-0.6824,-0.6818,-0.6808,-0.6797,-0.6801,-0.6901,-0.6825,-0.6826,-0.6827,-0.6827,-0.6828,-0.6619,-0.6612,-0.6629,-0.6632,-0.6642,-0.665,-0.6647,-0.6665,-0.6667,-0.6675,-0.6694,-0.6692,-0.6708,-0.6722,-0.6731,-0.673,-0.6745,-0.6738,-0.6736,-0.6733,-0.6727,-0.6798,-0.6732,-0.6732,-0.6732,-0.6732,-0.6733,0,-0.6546,-0.6558,-0.6561,-0.6573,-0.6575,-0.6599,-0.6611,-0.661,-0.6608,-0.662,-0.6624,-0.6625,-0.6628,-0.6649,-0.6654,-0.6649,-0.666,-0.6649,-0.6649,-0.6651,-0.6714,-0.6717,-0.6639,-0.6639,-0.6639,-0.6639,-0.6639,-0.6639,-0.6508,-0.6497,-0.6513,-0.6507,-0.652,-0.6518,-0.6522,-0.653,-0.6539,-0.6539,-0.6541,-0.6555,-0.6571,-0.6577,-0.658,-0.6586,-0.6585,-0.6569,-0.6579,-0.6637,-0.6646,-0.6655,-0.6659,-0.6569,-0.6569,-0.6517,-0.6516,-0.6516]}]]